Location: Unspecified
(0.0000°N, 0.0000°E)
Time: 15:10:00
(UTC+00:00)

IRIDIUM 114 - Pass Details

Date: 19 November 2025
Orbit: 776 x 779 km, 86.4° (Epoch: 12 December)

Event Time Altitude Azimuth Distance (km) Brightness Sun altitude
Exits shadow 19:21:24 35° 124° (ESE) 1,237 5.1 -22.5°
Drops below altitude 10° 19:25:01 10° 159° (SSE) 2,325 6.8 -23.3°
Sets 19:27:29 0° 167° (SSE) 3,255 7.7 -23.9°
